Location: La Brionne
(46.1728°N, 1.7849°E)
Time: 07:11:06
(UTC+00:00)

Cosmos 2219 Rocket - Pass Details

Date: 16 June 2021
Orbit: 829 x 845 km, 71.0° (Epoch: 02 August)

Event Time Altitude Azimuth Distance (km) Brightness Sun altitude
Exits shadow 23:06:09 11° 229° (SW) 2,401 4.3 -19.6°
Maximum altitude 23:11:25 48° 303° (WNW) 1,101 3.0 -19.8°
Drops below altitude 10° 23:16:55 10° 17° (NNE) 2,474 5.6 -19.9°
Sets 23:19:28 0° 24° (NNE) 3,411 6.3 -20.0°
